Weather History for Findlay, OH

Change the Weather History Date:

Tuesday, February 26, 2013

  Actual Average Record
Temperature  
Mean Temperature 34 °F -  
Max Temperature 39 °F 36 °F 61 °F (1976)
Min Temperature 28 °F 22 °F -14 °F (1963)
Degree Days  
Heating Degree Days 32    
Moisture  
Dew Point 30 °F    
Average Humidity 88    
Maximum Humidity 100    
Minimum Humidity 69    
Precipitation  
Precipitation 0.92 in - - ()
Sea Level Pressure  
Sea Level Pressure 29.62 in    
Wind  
Wind Speed 15 mph (ENE)    
Max Wind Speed 22 mph    
Max Gust Speed 30 mph    
Visibility 4 miles    
Events Rain    
Averages and records for this station are not official NWS values.
T = Trace of Precipitation, MM = Missing Value Source: NWS Daily Summary

Daily Weather History Graph

Daily Weather History Graph

Search for Another Location

Airport:

Trip Planner

Search our weather history database for the weather conditions in past years. The results will help you decide how hot, cold, wet, or windy it might be!

Date:

Astronomy

Feb. 26, 2013 Rise Set
Actual Time 7:13 AM EST 6:22 PM EST
Civil Twilight 6:45 AM EST 6:50 PM EST
Nautical Twilight 6:13 AM EST 7:22 PM EST
Astronomical Twilight 5:41 AM EST 7:53 PM EST
Moon 7:39 PM EST (2/26) 7:14 AM EST (2/26)
Length of Visible Light 12h 04m
Length of Day
11h 09m
Full, 99% of the Moon is Illuminated
Feb 26
Full
Mar 4
Last Quarter
Mar 11
New
Mar 19
First Quarter
Mar 27
Full

Hourly Weather History & Observations

Time (EST) Temp. Windchill Dew Point Humidity Pressure Visibility Wind Dir Wind Speed Gust Speed Precip Events Conditions
12:53 AM 28.9 °F 19.8 °F 23.0 °F 78% 30.02 in 10.0 mi NE 10.4 mph - N/A   Clear
1:53 AM 30.0 °F 20.5 °F 23.0 °F 75% 30.00 in 10.0 mi ENE 11.5 mph - N/A   Clear
2:53 AM 30.0 °F 20.0 °F 23.0 °F 75% 29.96 in 10.0 mi NE 12.7 mph - N/A   Clear
3:53 AM 30.0 °F 18.3 °F 23.0 °F 75% 29.91 in 10.0 mi ENE 17.3 mph - N/A   Clear
4:53 AM 30.0 °F 19.5 °F 23.0 °F 75% 29.88 in 10.0 mi ENE 13.8 mph - N/A   Clear
5:53 AM 30.0 °F 18.3 °F 23.0 °F 75% 29.87 in 10.0 mi ENE 17.3 mph 23.0 mph N/A   Clear
6:53 AM 30.0 °F 19.1 °F 23.0 °F 75% 29.84 in 10.0 mi ENE 15.0 mph - N/A   Clear
7:53 AM 30.9 °F 20.2 °F 23.0 °F 72% 29.80 in 10.0 mi ENE 15.0 mph 25.3 mph N/A   Clear
8:53 AM 32.0 °F 20.8 °F 23.0 °F 69% 29.79 in 10.0 mi ENE 17.3 mph - N/A   Overcast
9:44 AM 32.0 °F 22.1 °F 26.6 °F 80% 29.75 in 4.0 mi ENE 13.8 mph 26.5 mph 0.01 in Rain Light Freezing Rain
9:53 AM 32.0 °F 20.8 °F 26.1 °F 79% 29.76 in 4.0 mi ENE 17.3 mph - 0.02 in Rain Light Freezing Rain
10:14 AM 32.0 °F 21.2 °F 26.6 °F 80% 29.75 in 3.0 mi ENE 16.1 mph - 0.04 in Rain Light Freezing Rain
10:21 AM 32.0 °F 20.5 °F 26.6 °F 80% 29.74 in 2.0 mi ENE 18.4 mph 25.3 mph 0.06 in Rain Light Freezing Rain
10:31 AM 32.0 °F 19.8 °F 28.4 °F 87% 29.73 in 3.0 mi ENE 20.7 mph 26.5 mph 0.07 in Rain Light Freezing Rain
10:51 AM 32.0 °F 20.5 °F 28.4 °F 87% 29.71 in 2.5 mi ENE 18.4 mph - 0.09 in Rain Light Freezing Rain
10:53 AM 32.0 °F 20.8 °F 28.0 °F 85% 29.73 in 2.5 mi ENE 17.3 mph - 0.09 in Rain Light Freezing Rain
11:03 AM 32.0 °F 19.8 °F 28.4 °F 87% 29.70 in 2.5 mi ENE 20.7 mph 26.5 mph 0.01 in   Overcast
11:10 AM 32.0 °F 21.2 °F 28.4 °F 87% 29.69 in 3.0 mi ENE 16.1 mph 26.5 mph 0.02 in   Overcast
11:15 AM 32.0 °F 20.8 °F 28.4 °F 87% 29.69 in 2.5 mi ENE 17.3 mph 26.5 mph 0.03 in Rain Light Freezing Rain
11:24 AM 32.0 °F 19.8 °F 28.4 °F 87% 29.68 in 3.0 mi ENE 20.7 mph 28.8 mph 0.04 in Rain Light Freezing Rain
11:32 AM 32.0 °F 19.8 °F 28.4 °F 87% 29.68 in 3.0 mi ENE 20.7 mph 27.6 mph 0.05 in Rain Light Freezing Rain
11:40 AM 32.0 °F 20.1 °F 30.2 °F 93% 29.67 in 2.5 mi ENE 19.6 mph 27.6 mph 0.06 in Rain Light Freezing Rain
11:44 AM 32.0 °F 19.5 °F 28.4 °F 87% 29.66 in 3.0 mi ENE 21.9 mph 27.6 mph 0.06 in Rain Light Freezing Rain
11:47 AM 32.0 °F 20.8 °F 28.4 °F 87% 29.66 in 2.5 mi ENE 17.3 mph 27.6 mph 0.06 in Rain Light Freezing Rain
11:53 AM 32.0 °F 20.8 °F 30.0 °F 92% 29.67 in 2.5 mi ENE 17.3 mph 26.5 mph 0.07 in Rain Light Freezing Rain
12:12 PM 32.0 °F 19.5 °F 30.2 °F 93% 29.64 in 2.5 mi ENE 21.9 mph 28.8 mph 0.04 in   Overcast
12:21 PM 33.8 °F 22.5 °F 30.2 °F 87% 29.63 in 3.0 mi ENE 19.6 mph 29.9 mph 0.04 in   Overcast
12:24 PM 33.8 °F 22.2 °F 30.2 °F 87% 29.62 in 3.0 mi ENE 20.7 mph 28.8 mph 0.05 in Rain Light Freezing Rain
12:32 PM 33.8 °F 22.2 °F 30.2 °F 87% 29.61 in 2.0 mi ENE 20.7 mph 28.8 mph 0.07 in Rain Light Freezing Rain
12:45 PM 33.8 °F 22.8 °F 30.2 °F 87% 29.59 in 2.5 mi ENE 18.4 mph 27.6 mph 0.09 in Rain Light Rain
12:53 PM 33.1 °F 21.9 °F 30.9 °F 92% 29.60 in 3.0 mi ENE 18.4 mph 29.9 mph 0.10 in Rain Rain
1:03 PM 33.8 °F 22.5 °F 30.2 °F 87% 29.58 in 2.5 mi ENE 19.6 mph 28.8 mph 0.02 in Rain Rain
1:16 PM 33.8 °F 23.9 °F 30.2 °F 87% 29.59 in 1.5 mi East 15.0 mph 26.5 mph 0.06 in Rain Rain
1:20 PM 33.8 °F 23.2 °F 30.2 °F 87% 29.58 in 1.5 mi ENE 17.3 mph - 0.08 in Rain Heavy Rain
1:37 PM 33.8 °F 22.8 °F 30.2 °F 87% 29.57 in 3.0 mi ENE 18.4 mph 26.5 mph 0.12 in Rain Light Rain
1:53 PM 33.1 °F 22.6 °F 30.9 °F 92% 29.58 in 3.0 mi East 16.1 mph 26.5 mph 0.14 in Rain Light Rain
2:17 PM 33.8 °F 23.9 °F 32.0 °F 93% 29.56 in 1.8 mi East 15.0 mph - 0.03 in Rain Heavy Rain
2:37 PM 33.8 °F 23.5 °F 32.0 °F 93% 29.54 in 2.0 mi ENE 16.1 mph 23.0 mph 0.09 in Rain Rain
2:53 PM 34.0 °F 24.6 °F 33.1 °F 96% 29.55 in 2.5 mi East 13.8 mph - 0.12 in Rain Light Rain
3:34 PM 35.6 °F 25.5 °F 33.8 °F 93% 29.51 in 3.0 mi ENE 17.3 mph - 0.09 in Rain Rain
3:46 PM 35.6 °F 25.9 °F 33.8 °F 93% 29.51 in 2.5 mi ENE 16.1 mph 21.9 mph 0.11 in Rain Rain
3:53 PM 35.1 °F 25.2 °F 33.1 °F 92% 29.51 in 3.0 mi ENE 16.1 mph - 0.12 in Rain Light Rain
4:03 PM 35.6 °F 26.2 °F 33.8 °F 93% 29.50 in 1.8 mi ENE 15.0 mph - 0.00 in Rain Light Rain
4:17 PM 35.6 °F 25.9 °F 33.8 °F 93% 29.50 in 2.0 mi ENE 16.1 mph - 0.00 in Rain Light Rain
4:36 PM 35.6 °F 26.2 °F 33.8 °F 93% 29.49 in 3.0 mi ENE 15.0 mph - 0.02 in Rain Light Rain
4:49 PM 35.6 °F 26.2 °F 33.8 °F 93% 29.49 in 2.5 mi East 15.0 mph - 0.03 in Rain Rain
4:53 PM 36.0 °F 26.7 °F 34.0 °F 93% 29.49 in 2.5 mi ENE 15.0 mph - 0.04 in Rain Light Rain
5:01 PM 35.6 °F 27.1 °F 33.8 °F 93% 29.48 in 3.0 mi ENE 12.7 mph - 0.00 in Rain Light Rain
5:38 PM 35.6 °F 26.6 °F 33.8 °F 93% 29.47 in 2.5 mi East 13.8 mph - 0.03 in Rain Rain
5:53 PM 36.0 °F 28.0 °F 34.0 °F 93% 29.48 in 4.0 mi ENE 11.5 mph - 0.04 in Rain Light Rain
6:02 PM 35.6 °F 27.1 °F 35.6 °F 100% 29.47 in 3.0 mi East 12.7 mph - 0.01 in Rain Light Rain
6:53 PM 37.0 °F 29.8 °F 35.1 °F 93% 29.47 in 5.0 mi East 10.4 mph - 0.05 in Rain Light Rain
7:53 PM 36.0 °F 29.6 °F 35.1 °F 97% 29.47 in 5.0 mi East 8.1 mph - 0.02 in Rain Light Rain
8:53 PM 37.0 °F 31.6 °F 35.1 °F 93% 29.45 in 5.0 mi East 6.9 mph - 0.02 in Rain Light Rain
9:09 PM 37.4 °F 32.1 °F 35.6 °F 93% 29.44 in 6.0 mi East 6.9 mph - 0.00 in Rain Light Rain
9:53 PM 37.0 °F 31.0 °F 36.0 °F 96% 29.44 in 6.0 mi East 8.1 mph - 0.02 in Rain Light Rain
10:31 PM 37.4 °F 31.4 °F 35.6 °F 93% 29.42 in 5.0 mi ESE 8.1 mph - 0.03 in Rain Light Rain
10:53 PM 37.9 °F 31.5 °F 37.0 °F 97% 29.42 in 6.0 mi SE 9.2 mph - 0.04 in Rain Light Rain
11:27 PM 37.4 °F 32.1 °F 37.4 °F 100% 29.41 in 6.0 mi SSE 6.9 mph - 0.02 in Rain Light Rain
11:49 PM 39.2 °F 34.2 °F 37.4 °F 93% 29.41 in 6.0 mi SE 6.9 mph - 0.03 in Rain Light Rain
11:53 PM 39.0 °F 33.4 °F 37.0 °F 93% 29.42 in 6.0 mi SE 8.1 mph - 0.03 in Rain Light Rain